QFA3 YMML-YSSY

Flight info

Callsign QFA3
Flight time 0h 59m
Altitude 37000
Route ML H129 DOSEL Y59 RIVET
Aircraft B744/H-SDE3FGHIM1M2RWXY/LB1

Departure

Time 2026-05-07 21:30
Airport Melbourne Airport (YMML)

Arrival

Time 2026-05-07 22:29
Airport Sydney Kingsford Smith International Airport (YSSY)
Time Latitude Longitude Altitude Speed Heading
2026-05-07 20:50 -37.66914 144.84512 394 ft 0 kts 11°
2026-05-07 21:02 -37.66918 144.84511 394 ft 2 kts 11°
2026-05-07 21:02 -37.66932 144.84511 394 ft 2 kts 347°
2026-05-07 21:02 -37.66946 144.84517 395 ft 2 kts 328°
2026-05-07 21:02 -37.66958 144.84529 396 ft 2 kts 307°
2026-05-07 21:03 -37.66964 144.84546 397 ft 2 kts 287°
2026-05-07 21:03 -37.66966 144.84566 399 ft 1 kts 265°
2026-05-07 21:03 -37.66967 144.84561 398 ft 3 kts 263°
2026-05-07 21:03 -37.66972 144.84521 396 ft 7 kts 260°
2026-05-07 21:04 -37.66978 144.84474 392 ft 3 kts 260°
2026-05-07 21:04 -37.66980 144.84460 391 ft 0 kts 260°
2026-05-07 21:09 -37.66980 144.84457 391 ft 0 kts 260°
2026-05-07 21:10 -37.66982 144.84447 391 ft 1 kts 246°
2026-05-07 21:10 -37.66986 144.84441 390 ft 0 kts 218°
2026-05-07 21:10 -37.66989 144.84438 390 ft 0 kts 212°
2026-05-07 21:10 -37.66994 144.84433 390 ft 1 kts 212°
2026-05-07 21:11 -37.67010 144.84421 389 ft 4 kts 212°
2026-05-07 21:11 -37.67042 144.84387 388 ft 7 kts 234°
2026-05-07 21:11 -37.67065 144.84290 387 ft 3 kts 241°
2026-05-07 21:12 -37.67084 144.84264 386 ft 4 kts 210°
2026-05-07 21:12 -37.67127 144.84256 385 ft 9 kts 176°
2026-05-07 21:12 -37.67191 144.84267 383 ft 11 kts 171°
2026-05-07 21:12 -37.67259 144.84279 382 ft 10 kts 171°
2026-05-07 21:13 -37.67316 144.84290 381 ft 8 kts 171°
2026-05-07 21:13 -37.67361 144.84299 381 ft 7 kts 171°
2026-05-07 21:13 -37.67402 144.84306 380 ft 6 kts 172°
2026-05-07 21:13 -37.67444 144.84314 380 ft 6 kts 171°
2026-05-07 21:14 -37.67487 144.84322 379 ft 7 kts 171°
2026-05-07 21:14 -37.67545 144.84332 378 ft 8 kts 172°
2026-05-07 21:14 -37.67616 144.84346 377 ft 10 kts 172°
2026-05-07 21:14 -37.67693 144.84358 375 ft 13 kts 173°
2026-05-07 21:15 -37.67799 144.84376 372 ft 16 kts 171°
2026-05-07 21:15 -37.67907 144.84399 368 ft 15 kts 170°
2026-05-07 21:15 -37.68022 144.84421 364 ft 15 kts 172°
2026-05-07 21:15 -37.68122 144.84441 360 ft 15 kts 171°
2026-05-07 21:16 -37.68233 144.84462 355 ft 16 kts 171°
2026-05-07 21:16 -37.68313 144.84474 351 ft 10 kts 182°
2026-05-07 21:16 -37.68383 144.84439 347 ft 11 kts 212°
2026-05-07 21:16 -37.68442 144.84392 344 ft 12 kts 213°
2026-05-07 21:17 -37.68510 144.84335 342 ft 11 kts 214°
2026-05-07 21:17 -37.68543 144.84293 341 ft 4 kts 243°
2026-05-07 21:17 -37.68549 144.84270 341 ft 1 kts 260°
2026-05-07 21:17 -37.68549 144.84268 341 ft 0 kts 260°
2026-05-07 21:20 -37.68552 144.84245 342 ft 0 kts 260°
2026-05-07 21:26 -37.68555 144.84219 342 ft 5 kts 262°
2026-05-07 21:26 -37.68559 144.84189 343 ft 1 kts 262°
2026-05-07 21:26 -37.68560 144.84169 343 ft 4 kts 266°
2026-05-07 21:27 -37.68554 144.84123 344 ft 5 kts 303°
2026-05-07 21:27 -37.68534 144.84100 345 ft 1 kts 333°
2026-05-07 21:27 -37.68523 144.84096 345 ft 2 kts 342°
2026-05-07 21:27 -37.68505 144.84091 345 ft 1 kts 351°
2026-05-07 21:28 -37.68502 144.84090 346 ft 0 kts 351°
2026-05-07 21:28 -37.68487 144.84088 346 ft 9 kts 351°
2026-05-07 21:28 -37.68269 144.84045 353 ft 61 kts 351°
2026-05-07 21:29 -37.67691 144.83937 372 ft 127 kts 351°
2026-05-07 21:29 -37.66674 144.83685 456 ft 175 kts 344°
2026-05-07 21:30 -37.63040 144.82997 1961 ft 186 kts 347°
2026-05-07 21:30 -37.61747 144.82776 2368 ft 190 kts 344°
2026-05-07 21:30 -37.60424 144.82516 2788 ft 195 kts 345°
2026-05-07 21:30 -37.59027 144.82552 3143 ft 209 kts
2026-05-07 21:31 -37.57646 144.83272 3530 ft 217 kts 24°
2026-05-07 21:31 -37.56302 144.84088 3949 ft 219 kts 22°
2026-05-07 21:31 -37.54892 144.84906 4307 ft 227 kts 22°
2026-05-07 21:31 -37.53415 144.85776 4654 ft 235 kts 23°
2026-05-07 21:32 -37.51933 144.86649 5130 ft 236 kts 24°
2026-05-07 21:32 -37.50441 144.87537 5558 ft 239 kts 24°
2026-05-07 21:32 -37.48917 144.88448 5961 ft 243 kts 24°
2026-05-07 21:32 -37.47364 144.89381 6331 ft 249 kts 25°
2026-05-07 21:33 -37.45760 144.90363 6676 ft 256 kts 25°
2026-05-07 21:33 -37.44161 144.91386 7051 ft 260 kts 33°
2026-05-07 21:33 -37.42810 144.92923 7328 ft 265 kts 57°
2026-05-07 21:33 -37.41754 144.94910 7624 ft 270 kts 61°
2026-05-07 21:34 -37.40709 144.96857 8037 ft 271 kts 59°
2026-05-07 21:34 -37.39618 144.98808 8406 ft 273 kts 60°
2026-05-07 21:34 -37.38510 145.00798 8771 ft 276 kts 60°
2026-05-07 21:34 -37.37402 145.02791 9087 ft 280 kts 60°
2026-05-07 21:35 -37.36264 145.04835 9357 ft 288 kts 59°
2026-05-07 21:35 -37.35077 145.06961 9642 ft 293 kts 59°
2026-05-07 21:35 -37.33891 145.09068 9964 ft 295 kts 59°
2026-05-07 21:35 -37.32704 145.11180 10238 ft 298 kts 59°
2026-05-07 21:36 -37.31491 145.13327 10475 ft 303 kts 59°
2026-05-07 21:36 -37.30232 145.15552 10651 ft 310 kts 59°
2026-05-07 21:36 -37.28962 145.17801 10745 ft 320 kts 59°
2026-05-07 21:36 -37.27644 145.20128 10771 ft 331 kts 58°
2026-05-07 21:37 -37.26270 145.22540 10890 ft 338 kts 59°
2026-05-07 21:37 -37.24888 145.24971 10926 ft 347 kts 59°
2026-05-07 21:37 -37.23457 145.27506 11050 ft 352 kts 58°
2026-05-07 21:37 -37.22001 145.30049 11132 ft 358 kts 58°
2026-05-07 21:38 -37.20560 145.32581 11259 ft 362 kts 58°
2026-05-07 21:38 -37.19059 145.35188 11312 ft 369 kts 58°
2026-05-07 21:38 -37.17522 145.37836 11344 ft 377 kts 58°
2026-05-07 21:38 -37.15924 145.40559 11449 ft 382 kts 58°
2026-05-07 21:39 -37.14374 145.43304 11615 ft 384 kts 59°
2026-05-07 21:39 -37.12814 145.46040 11781 ft 387 kts 58°
2026-05-07 21:39 -37.11234 145.48801 11971 ft 388 kts 58°
2026-05-07 21:39 -37.09656 145.51570 12155 ft 391 kts 58°
2026-05-07 21:40 -37.08063 145.54349 12388 ft 391 kts 58°
2026-05-07 21:40 -37.06440 145.57164 12655 ft 391 kts 58°
2026-05-07 21:40 -37.04838 145.59952 12895 ft 392 kts 58°
2026-05-07 21:40 -37.03239 145.62724 13125 ft 393 kts 58°
2026-05-07 21:41 -37.01636 145.65520 13342 ft 394 kts 58°
2026-05-07 21:41 -36.99987 145.68378 13547 ft 396 kts 57°
2026-05-07 21:41 -36.98379 145.71173 13744 ft 398 kts 57°
2026-05-07 21:41 -36.96762 145.73953 13975 ft 399 kts 58°
2026-05-07 21:42 -36.95106 145.76827 14192 ft 401 kts 57°
2026-05-07 21:42 -36.93483 145.79642 14408 ft 403 kts 57°
2026-05-07 21:42 -36.91799 145.82544 14637 ft 405 kts 57°
2026-05-07 21:42 -36.90139 145.85403 14890 ft 406 kts 57°
2026-05-07 21:43 -36.88484 145.88242 15147 ft 407 kts 57°
2026-05-07 21:43 -36.86809 145.91121 15399 ft 408 kts 57°
2026-05-07 21:43 -36.85261 145.93796 15594 ft 409 kts 58°
2026-05-07 21:43 -36.83624 145.96617 15814 ft 411 kts 57°
2026-05-07 21:44 -36.81842 145.99678 16078 ft 416 kts 57°
2026-05-07 21:44 -36.80130 146.02605 16434 ft 415 kts 57°
2026-05-07 21:44 -36.78432 146.05524 16683 ft 415 kts 57°
2026-05-07 21:44 -36.76818 146.08278 16888 ft 417 kts 57°
2026-05-07 21:45 -36.75117 146.11189 17103 ft 418 kts 57°
2026-05-07 21:45 -36.73387 146.14153 17308 ft 420 kts 57°
2026-05-07 21:45 -36.71651 146.17133 17505 ft 421 kts 57°
2026-05-07 21:45 -36.69909 146.20091 17701 ft 423 kts 57°
2026-05-07 21:46 -36.68175 146.23058 17899 ft 424 kts 57°
2026-05-07 21:46 -36.66398 146.26085 18095 ft 426 kts 57°
2026-05-07 21:46 -36.64645 146.29060 18290 ft 427 kts 57°
2026-05-07 21:46 -36.62888 146.32060 18490 ft 429 kts 57°
2026-05-07 21:47 -36.61114 146.35066 18697 ft 430 kts 57°
2026-05-07 21:47 -36.59330 146.38081 18919 ft 430 kts 57°
2026-05-07 21:47 -36.57551 146.41098 19142 ft 430 kts 57°
2026-05-07 21:47 -36.55774 146.44127 19356 ft 431 kts 57°
2026-05-07 21:48 -36.53980 146.47157 19513 ft 434 kts 57°
2026-05-07 21:48 -36.52170 146.50221 19689 ft 435 kts 57°
2026-05-07 21:48 -36.50371 146.53265 19893 ft 437 kts 57°
2026-05-07 21:48 -36.48553 146.56328 20110 ft 437 kts 57°
2026-05-07 21:49 -36.46724 146.59421 20329 ft 438 kts 57°
2026-05-07 21:49 -36.44913 146.62456 20535 ft 438 kts 57°
2026-05-07 21:49 -36.43154 146.65433 20696 ft 440 kts 56°
2026-05-07 21:49 -36.41308 146.68529 20851 ft 442 kts 56°
2026-05-07 21:50 -36.39482 146.71616 21012 ft 443 kts 56°
2026-05-07 21:50 -36.37633 146.74705 21174 ft 445 kts 56°
2026-05-07 21:50 -36.35761 146.77843 21377 ft 449 kts 56°
2026-05-07 21:50 -36.33892 146.80994 21664 ft 450 kts 56°
2026-05-07 21:51 -36.32033 146.84100 21975 ft 450 kts 56°
2026-05-07 21:51 -36.30148 146.87250 22238 ft 452 kts 56°
2026-05-07 21:51 -36.28255 146.90422 22551 ft 453 kts 56°
2026-05-07 21:51 -36.26376 146.93555 22809 ft 454 kts 56°
2026-05-07 21:52 -36.24472 146.96733 23109 ft 455 kts 56°
2026-05-07 21:52 -36.22578 146.99893 23381 ft 456 kts 56°
2026-05-07 21:52 -36.20676 147.03075 23663 ft 457 kts 56°
2026-05-07 21:52 -36.18750 147.06223 23932 ft 458 kts 56°
2026-05-07 21:53 -36.16813 147.09441 24150 ft 460 kts 57°
2026-05-07 21:53 -36.14911 147.12650 24388 ft 462 kts 56°
2026-05-07 21:53 -36.12979 147.15839 24620 ft 463 kts 57°
2026-05-07 21:53 -36.11067 147.19031 24829 ft 465 kts 57°
2026-05-07 21:54 -36.09082 147.22308 25068 ft 473 kts 56°
2026-05-07 21:54 -36.07103 147.25588 25632 ft 479 kts 57°
2026-05-07 21:54 -36.05092 147.28900 26327 ft 480 kts 57°
2026-05-07 21:54 -36.03093 147.32222 26796 ft 482 kts 57°
2026-05-07 21:55 -36.01071 147.35562 27237 ft 485 kts 56°
2026-05-07 21:55 -35.99056 147.38884 27666 ft 488 kts 57°
2026-05-07 21:55 -35.96977 147.42300 28183 ft 488 kts 56°
2026-05-07 21:55 -35.94951 147.45641 28646 ft 490 kts 57°
2026-05-07 21:56 -35.92920 147.48987 29077 ft 490 kts 57°
2026-05-07 21:56 -35.90860 147.52365 29420 ft 492 kts 57°
2026-05-07 21:56 -35.88918 147.55563 29671 ft 494 kts 57°
2026-05-07 21:56 -35.86832 147.58986 29878 ft 498 kts 57°
2026-05-07 21:57 -35.84862 147.62186 30087 ft 500 kts 56°
2026-05-07 21:57 -35.82757 147.65575 30305 ft 502 kts 56°
2026-05-07 21:57 -35.80694 147.68991 30532 ft 504 kts 56°
2026-05-07 21:57 -35.78630 147.72388 30707 ft 507 kts 56°
2026-05-07 21:58 -35.76490 147.75876 30915 ft 509 kts 56°
2026-05-07 21:58 -35.74315 147.79431 31127 ft 511 kts 56°
2026-05-07 21:58 -35.72147 147.82956 31342 ft 513 kts 56°
2026-05-07 21:58 -35.69987 147.86473 31561 ft 515 kts 56°
2026-05-07 21:59 -35.67835 147.89964 31768 ft 516 kts 56°
2026-05-07 21:59 -35.65676 147.93481 31972 ft 518 kts 55°
2026-05-07 21:59 -35.63454 147.97075 32190 ft 522 kts 55°
2026-05-07 21:59 -35.61254 148.00642 32419 ft 525 kts 55°
2026-05-07 22:00 -35.59075 148.04146 32677 ft 527 kts 54°
2026-05-07 22:00 -35.56868 148.07726 32955 ft 528 kts 54°
2026-05-07 22:00 -35.54616 148.11348 33210 ft 530 kts 54°
2026-05-07 22:00 -35.52374 148.14941 33427 ft 533 kts 54°
2026-05-07 22:01 -35.50135 148.18564 33704 ft 534 kts 54°
2026-05-07 22:01 -35.47903 148.22162 33941 ft 536 kts 54°
2026-05-07 22:01 -35.45604 148.25841 34156 ft 538 kts 53°
2026-05-07 22:01 -35.43332 148.29460 34413 ft 539 kts 53°
2026-05-07 22:02 -35.41076 148.33064 34615 ft 541 kts 54°
2026-05-07 22:02 -35.38797 148.36743 34840 ft 541 kts 53°
2026-05-07 22:02 -35.36468 148.40440 35031 ft 542 kts 53°
2026-05-07 22:02 -35.34189 148.44096 35223 ft 542 kts 53°
2026-05-07 22:03 -35.31943 148.47670 35373 ft 543 kts 53°
2026-05-07 22:03 -35.29613 148.51393 35542 ft 544 kts 53°
2026-05-07 22:03 -35.27324 148.55045 35694 ft 545 kts 53°
2026-05-07 22:03 -35.24999 148.58751 35864 ft 546 kts 52°
2026-05-07 22:04 -35.22696 148.62399 36021 ft 546 kts 52°
2026-05-07 22:04 -35.20369 148.66083 36167 ft 546 kts 51°
2026-05-07 22:04 -35.18075 148.69717 36319 ft 546 kts 51°
2026-05-07 22:04 -35.15764 148.73364 36497 ft 547 kts 51°
2026-05-07 22:05 -35.13444 148.77052 36647 ft 547 kts 51°
2026-05-07 22:05 -35.11132 148.80708 36837 ft 549 kts 51°
2026-05-07 22:05 -35.08763 148.84428 37038 ft 551 kts 52°
2026-05-07 22:05 -35.06467 148.88065 37111 ft 539 kts 51°
2026-05-07 22:06 -35.01943 148.95183 37058 ft 520 kts 51°
2026-05-07 22:06 -34.97538 149.02110 37084 ft 514 kts 50°
2026-05-07 22:07 -34.93173 149.08960 37159 ft 523 kts 50°
2026-05-07 22:07 -34.88688 149.16007 36493 ft 538 kts 50°
2026-05-07 22:08 -34.86474 149.19444 35958 ft 542 kts 50°
2026-05-07 22:08 -34.84159 149.23064 35426 ft 539 kts 51°
2026-05-07 22:08 -34.81881 149.26593 34886 ft 530 kts 51°
2026-05-07 22:08 -34.79653 149.30055 34320 ft 518 kts 51°
2026-05-07 22:09 -34.77469 149.33456 33578 ft 507 kts 51°
2026-05-07 22:09 -34.75344 149.36806 32803 ft 498 kts 52°
2026-05-07 22:09 -34.73380 149.40204 32001 ft 490 kts 61°
2026-05-07 22:09 -34.71831 149.43849 31250 ft 485 kts 65°
2026-05-07 22:10 -34.70295 149.47447 30500 ft 478 kts 64°
2026-05-07 22:10 -34.68765 149.50952 29695 ft 472 kts 65°
2026-05-07 22:10 -34.67259 149.54494 28921 ft 471 kts 65°
2026-05-07 22:10 -34.65753 149.57930 28153 ft 465 kts 64°
2026-05-07 22:11 -34.64250 149.61366 27357 ft 457 kts 65°
2026-05-07 22:11 -34.62793 149.64735 26549 ft 453 kts 64°
2026-05-07 22:11 -34.61332 149.68082 25767 ft 452 kts 64°
2026-05-07 22:11 -34.59874 149.71411 24985 ft 446 kts 64°
2026-05-07 22:12 -34.58415 149.74715 24224 ft 440 kts 64°
2026-05-07 22:12 -34.56998 149.77933 23477 ft 437 kts 64°
2026-05-07 22:12 -34.55582 149.81163 22732 ft 432 kts 65°
2026-05-07 22:12 -34.54195 149.84363 21978 ft 426 kts 64°
2026-05-07 22:13 -34.52803 149.87515 21217 ft 421 kts 64°
2026-05-07 22:13 -34.51427 149.90607 20472 ft 415 kts 63°
2026-05-07 22:13 -34.50058 149.93655 19709 ft 411 kts 63°
2026-05-07 22:13 -34.48709 149.96716 18965 ft 407 kts 64°
2026-05-07 22:14 -34.47399 149.99712 18255 ft 402 kts 64°
2026-05-07 22:14 -34.46086 150.02663 17573 ft 396 kts 64°
2026-05-07 22:14 -34.44788 150.05594 16910 ft 390 kts 63°
2026-05-07 22:14 -34.43509 150.08489 16268 ft 390 kts 63°
2026-05-07 22:15 -34.42226 150.11374 15614 ft 384 kts 63°
2026-05-07 22:15 -34.40963 150.14197 14995 ft 378 kts 64°
2026-05-07 22:15 -34.39732 150.16972 14371 ft 373 kts 63°
2026-05-07 22:15 -34.38509 150.19740 13771 ft 370 kts 64°
2026-05-07 22:16 -34.37293 150.22444 13221 ft 366 kts 64°
2026-05-07 22:16 -34.36073 150.25176 12677 ft 366 kts 64°
2026-05-07 22:16 -34.34877 150.27870 12181 ft 365 kts 64°
2026-05-07 22:16 -34.33676 150.30568 11720 ft 360 kts 64°
2026-05-07 22:17 -34.32487 150.33220 11289 ft 349 kts 64°
2026-05-07 22:17 -34.31349 150.35761 10890 ft 337 kts 64°
2026-05-07 22:17 -34.30261 150.38185 10606 ft 323 kts 64°
2026-05-07 22:17 -34.29206 150.40540 10341 ft 309 kts 65°
2026-05-07 22:18 -34.28183 150.42804 10141 ft 303 kts 64°
2026-05-07 22:18 -34.26133 150.47438 9828 ft 323 kts 65°
2026-05-07 22:18 -34.25072 150.49809 9662 ft 318 kts 65°
2026-05-07 22:19 -34.24029 150.52164 9449 ft 314 kts 65°
2026-05-07 22:19 -34.22994 150.54481 9146 ft 311 kts 65°
2026-05-07 22:19 -34.21976 150.56755 8847 ft 303 kts 65°
2026-05-07 22:19 -34.20973 150.58995 8541 ft 297 kts 65°
2026-05-07 22:20 -34.19987 150.61189 8293 ft 300 kts 65°
2026-05-07 22:20 -34.18969 150.63429 8153 ft 301 kts 65°
2026-05-07 22:20 -34.17950 150.65637 8067 ft 301 kts 64°
2026-05-07 22:20 -34.16961 150.67862 7745 ft 307 kts 65°
2026-05-07 22:21 -34.15947 150.70140 7415 ft 304 kts 65°
2026-05-07 22:21 -34.14938 150.72371 7132 ft 293 kts 65°
2026-05-07 22:21 -34.13983 150.74504 6577 ft 293 kts 66°
2026-05-07 22:21 -34.13004 150.76683 5958 ft 295 kts 65°
2026-05-07 22:22 -34.12044 150.78825 5594 ft 285 kts 65°
2026-05-07 22:22 -34.11117 150.80882 5396 ft 270 kts 64°
2026-05-07 22:22 -34.10204 150.82796 5216 ft 256 kts 57°
2026-05-07 22:22 -34.09087 150.84348 5048 ft 244 kts 47°
2026-05-07 22:23 -34.07925 150.85797 4857 ft 239 kts 48°
2026-05-07 22:23 -34.06798 150.87247 4826 ft 232 kts 48°
2026-05-07 22:23 -34.05707 150.88650 4657 ft 225 kts 47°
2026-05-07 22:23 -34.04654 150.89999 4369 ft 219 kts 47°
2026-05-07 22:24 -34.03642 150.91306 4024 ft 216 kts 47°
2026-05-07 22:24 -34.02624 150.92613 3727 ft 211 kts 47°
2026-05-07 22:24 -34.01613 150.93900 3500 ft 212 kts 46°
2026-05-07 22:24 -34.00604 150.95178 3345 ft 216 kts 47°
2026-05-07 22:25 -33.99587 150.96474 3254 ft 216 kts 46°
2026-05-07 22:25 -33.98659 150.97853 3156 ft 214 kts 65°
2026-05-07 22:25 -33.98209 150.99539 3049 ft 213 kts 83°
2026-05-07 22:25 -33.97937 151.01288 2800 ft 220 kts 79°
2026-05-07 22:26 -33.97540 151.02997 2563 ft 210 kts 75°
2026-05-07 22:26 -33.97136 151.04637 2294 ft 206 kts 76°
2026-05-07 22:26 -33.96772 151.06265 1984 ft 202 kts 75°
2026-05-07 22:26 -33.96394 151.07828 1701 ft 186 kts 73°
2026-05-07 22:27 -33.96069 151.09193 1450 ft 170 kts 74°
2026-05-07 22:27 -33.95769 151.10498 1156 ft 164 kts 72°
2026-05-07 22:27 -33.95460 151.11763 971 ft 162 kts 71°
2026-05-07 22:27 -33.95166 151.12993 770 ft 160 kts 72°
2026-05-07 22:28 -33.94940 151.14000 532 ft 161 kts 72°
2026-05-07 22:28 -33.94648 151.15204 290 ft 153 kts 70°
2026-05-07 22:28 -33.94386 151.16283 77 ft 149 kts 71°
2026-05-07 22:28 -33.94189 151.17133 29 ft 136 kts 69°
2026-05-07 22:29 -33.93988 151.17976 29 ft 89 kts 74°
2026-05-07 22:29 -33.93915 151.18262 29 ft 10 kts 42°
2026-05-07 22:29 -33.93843 151.18265 29 ft 11 kts 343°
2026-05-07 22:29 -33.93769 151.18236 29 ft 11 kts 334°
2026-05-07 22:30 -33.93749 151.18172 29 ft 8 kts 261°
2026-05-07 22:30 -33.93760 151.18117 29 ft 6 kts 255°
2026-05-07 22:30 -33.93770 151.18074 29 ft 4 kts 254°
2026-05-07 22:30 -33.93783 151.18018 29 ft 9 kts 254°
2026-05-07 22:31 -33.93805 151.17925 29 ft 13 kts 254°
2026-05-07 22:31 -33.93827 151.17831 29 ft 11 kts 254°
2026-05-07 22:31 -33.93848 151.17744 29 ft 9 kts 254°
2026-05-07 22:31 -33.93864 151.17679 29 ft 6 kts 254°
2026-05-07 22:32 -33.93873 151.17639 29 ft 3 kts 254°
2026-05-07 22:32 -33.93879 151.17612 29 ft 5 kts 254°
2026-05-07 22:32 -33.93897 151.17537 29 ft 12 kts 254°
2026-05-07 22:32 -33.93924 151.17421 29 ft 12 kts 255°
2026-05-07 22:33 -33.93946 151.17323 29 ft 10 kts 255°
2026-05-07 22:33 -33.93961 151.17255 29 ft 7 kts 255°
2026-05-07 22:33 -33.93975 151.17194 29 ft 6 kts 255°
2026-05-07 22:33 -33.93986 151.17146 29 ft 6 kts 253°
2026-05-07 22:34 -33.94006 151.17068 29 ft 13 kts 253°
2026-05-07 22:34 -33.94033 151.16962 29 ft 13 kts 253°
2026-05-07 22:34 -33.94054 151.16872 29 ft 8 kts 256°
2026-05-07 22:34 -33.94052 151.16820 29 ft 5 kts 295°
2026-05-07 22:35 -33.94033 151.16779 29 ft 5 kts 301°
2026-05-07 22:35 -33.94017 151.16748 29 ft 3 kts 303°
2026-05-07 22:35 -33.94006 151.16728 29 ft 3 kts 304°
2026-05-07 22:35 -33.93990 151.16701 29 ft 3 kts 304°
2026-05-07 22:36 -33.93980 151.16684 29 ft 1 kts 304°
2026-05-07 22:36 -33.93980 151.16682 29 ft 0 kts 304°